Del Bajio, Mexico

5:51 PM CST on March 30, 2017 (GMT -0600)
De Guanajuato International

Weather History for MMLO - January, 2014

Change the Weather History Date:

Friday, January 3, 2014

  Actual Average Record
Temperature  
Mean Temperature 56 °F -  
Max Temperature 71 °F 74 °F 93 °F (2016)
Min Temperature 42 °F 41 °F 30 °F (2008)
Degree Days  
Heating Degree Days 8    
Growing Degree Days 6 (Base 50)    
Moisture  
Dew Point 40 °F    
Average Humidity 60    
Maximum Humidity 81    
Minimum Humidity 31    
Precipitation  
Precipitation 0.00 in - - ()
Sea Level Pressure  
Sea Level Pressure 30.19 in    
Wind  
Wind Speed 6 mph ()    
Max Wind Speed 12 mph    
Max Gust Speed -    
Visibility 9.0 miles    
Events      
Averages and records for this station are not official NWS values.
T = Trace of Precipitation, MM = Missing Value Source: Averaged Metar Reports

Daily Weather History Graph

Daily Weather History Graph

Search for Another Location

Airport or City:

Trip Planner

Search our weather history database for the weather conditions in past years. The results will help you decide how hot, cold, wet, or windy it might be!

Date:

Astronomy

Jan. 03, 2014 Rise Set
Actual Time 7:23 AM CST 6:17 PM CST
Civil Twilight 6:59 AM CST 6:41 PM CST
Nautical Twilight 6:31 AM CST 7:09 PM CST
Astronomical Twilight 6:04 AM CST 7:36 PM CST
Moon 9:12 AM CST (1/3) 9:03 PM CST (1/3)
Length of Visible Light 11h 42m
Length of Day
10h 53m
Waxing Crescent, 8% of the Moon is Illuminated
Jan 3
Waxing Crescent
Jan 7
First Quarter
Jan 15
Full
Jan 23
Last Quarter
Jan 30
New

Hourly Weather History & Observations

Time (CST) Temp. Windchill Dew Point Humidity Pressure Visibility Wind Dir Wind Speed Gust Speed Precip Events Conditions
12:43 AM 46.4 °F 42.4 °F 41.0 °F 81% 30.30 in 8.0 mi NE 8.1 mph - N/A   Scattered Clouds
1:48 AM 46.4 °F 42.9 °F 39.2 °F 76% 30.27 in 8.0 mi NE 6.9 mph - N/A   Scattered Clouds
4:49 AM 46.4 °F 41.1 °F 39.2 °F 76% 30.27 in 8.0 mi NE 11.5 mph - N/A   Scattered Clouds
5:43 AM 44.6 °F 40.2 °F 39.2 °F 81% 30.02 in 8.0 mi NE 8.1 mph - N/A   Partly Cloudy
6:42 AM 44.6 °F 40.7 °F 37.4 °F 76% 30.30 in 9.0 mi ENE 6.9 mph - N/A   Scattered Clouds
7:45 AM 42.8 °F 40.1 °F 37.4 °F 81% 30.33 in 10.0 mi ENE 4.6 mph - N/A   Scattered Clouds
8:43 AM 50.0 °F - 39.2 °F 66% 30.15 in 10.0 mi NE 11.5 mph - N/A   Scattered Clouds
9:44 AM 55.4 °F - 39.2 °F 54% 30.35 in 10.0 mi NE 9.2 mph - N/A   Scattered Clouds
10:41 AM 59.0 °F - 39.2 °F 48% 30.35 in 10.0 mi Calm Calm - N/A   Scattered Clouds
11:41 AM 60.8 °F - 41.0 °F 48% 30.12 in 10.0 mi SSE 6.9 mph - N/A   Scattered Clouds
12:40 PM 62.6 °F - 41.0 °F 45% 30.29 in 10.0 mi SSW 6.9 mph - N/A   Scattered Clouds
1:41 PM 66.2 °F - 41.0 °F 40% 30.24 in 10.0 mi Calm Calm - N/A   Partly Cloudy
2:43 PM 69.8 °F - 39.2 °F 33% 29.94 in 10.0 mi SSE 4.6 mph - N/A   Scattered Clouds
3:43 PM 71.6 °F - 39.2 °F 31% 30.21 in 10.0 mi SSE 3.5 mph - N/A   Scattered Clouds
4:43 PM 69.8 °F - 39.2 °F 33% 30.18 in 10.0 mi WSW 4.6 mph - N/A   Scattered Clouds
5:45 PM 66.2 °F - 39.2 °F 37% 29.96 in 10.0 mi Calm Calm - N/A   Partly Cloudy
6:45 PM 57.2 °F - 42.8 °F 59% 30.21 in 8.0 mi North 4.6 mph - N/A   Clear
7:44 PM 53.6 °F - 42.8 °F 67% 30.21 in 8.0 mi NE 6.9 mph - N/A   Clear
8:47 PM 53.6 °F - 42.8 °F 67% 30.06 in 8.0 mi NE 6.9 mph - N/A   Clear
9:49 PM 51.8 °F - 42.8 °F 71% 30.24 in 8.0 mi ENE 4.6 mph - N/A   Clear
10:43 PM 50.0 °F - 42.8 °F 76% 30.24 in 8.0 mi NNE 4.6 mph - N/A   Clear
11:42 PM 46.4 °F 45.2 °F 41.0 °F 81% 30.05 in 8.0 mi East 3.5 mph - N/A   Clear